Flag for China Weather past 2 weeks in Shenzhen, Guangdong, China

Now
84 °F

Passing clouds.


Feels Like: 96 °F
Forecast: 78 / 96 °F
Wind: 3 mph from West

Location: Shenzhen Airport

Current Time: Jul 31, 2014 at 6:50:39 AM

Latest Report: Jul 31, 2014 at 6:00 AM


Visibility: N/A

Pressure: 29.65 "Hg

Humidity: 84%

Dew point: 79 °F

Location of ShenzhenLocation

Historic Weather in Shenzhen — Graph

°F

Shenzhen temperature yesterday

Maximum temperature yesterday: 91 °F (at 1:00 PM)
Minimum temperature yesterday: 82 °F (at 5:00 AM)
Average temperature yesterday: 87 °F

Past Weeks' High & Low Weather Summary

 TemperatureHumidityPressure
High93 °F (Jul 17, 12:00 PM)94% (Jul 18, 2:00 PM)29.83 "Hg (Jul 18, 2:00 PM)
Low77 °F (Jul 24, 10:00 PM)53% (Jul 17, 4:00 PM)29.42 "Hg (Jul 23, 5:00 PM)
Average86 °F77%29.68 "Hg
* Reported Jul 16 5:00 AM — Jul 31 5:00 AM, Shenzhen, Weather by CustomWeather, © 2014

Note: Actual official high and low records may vary slightly from our data, if they occured in-between our weather recording intervals... More about our weather records

Advertising

Shenzhen weather history for previous 24 hours

 ConditionsComfort  
Time TempWeatherWind HumidityBarometerVisibility
5:00 AM
Jul 31
86 °FClear.3 mph79%29.65 "Hg10 mi
4:00 AM86 °FPassing clouds.3 mph75%29.65 "HgN/A
3:00 AM86 °FClear.3 mph79%29.65 "Hg10 mi
2:00 AM86 °FClear.6 mph79%29.65 "Hg10 mi
1:00 AM86 °FPassing clouds.8 mph79%29.65 "HgN/A
12:00 AM86 °FPassing clouds.10 mph79%29.65 "HgN/A
11:00 PM
Jul 30
86 °FPassing clouds.10 mph84%29.65 "HgN/A
10:00 PM88 °FPassing clouds.13 mph79%29.68 "HgN/A
9:00 PM88 °FClear.13 mph79%29.65 "Hg10 mi
8:00 PM88 °FClear.13 mph79%29.65 "Hg10 mi
7:00 PM88 °FSunny.10 mph75%29.62 "Hg10 mi
6:00 PM90 °FSunny.13 mph75%29.59 "Hg10 mi
5:00 PM90 °FPassing clouds.10 mph75%29.62 "HgN/A
4:00 PM91 °FPartly sunny.8 mph67%29.62 "Hg4 mi
3:00 PM91 °FPartly sunny.8 mph67%29.65 "Hg4 mi
2:00 PM91 °FScattered clouds.8 mph71%29.65 "Hg4 mi
1:00 PM91 °FScattered clouds.8 mph67%29.68 "Hg4 mi
12:00 PM90 °FScattered clouds.6 mph71%29.68 "Hg4 mi
11:00 AM90 °FPartly sunny.6 mph71%29.71 "Hg4 mi
10:00 AM88 °FPartly sunny.6 mph75%29.71 "Hg4 mi
9:00 AM88 °FPartly sunny.3 mph70%29.71 "Hg4 mi
8:00 AM88 °FSunny.1 mph70%29.71 "Hg10 mi
7:00 AM84 °FSunny.1 mph79%29.71 "Hg10 mi
6:00 AM84 °FSunny.1 mph74%29.71 "Hg10 mi
Weather by CustomWeather, © 2014

See weather overviewHow to use our weather pages